Change the Weather History Date:

Monday, May 5, 2014

  Actual Average Record
Temperature  
Mean Temperature 77 °F 76 °F  
Max Temperature 97 °F 92 °F 105 °F (1958)
Min Temperature 56 °F 59 °F 46 °F (1964)
Degree Days  
Heating Degree Days 0 0  
Month to date heating degree days 0 0  
Since 1 July heating degree days 821 1180  
Cooling Degree Days 12 11  
Month to date cooling degree days 62 52  
Year to date cooling degree days 424 308  
Growing Degree Days 26 (Base 50)    
Moisture  
Dew Point 24 °F    
Average Humidity 19    
Maximum Humidity 32    
Minimum Humidity 5    
Precipitation  
Precipitation 0.00 in 0.00 in 0.12 in (1992)
Month to date precipitation 0.00 0.00  
Year to date precipitation 0.08 1.77  
Since 1 July precipitation 1.55 3.15  
Snow  
Snow 0.00 in - - ()
Month to date snowfall 0.0  
Year to date snowfall 0.0  
Since 1 July snowfall 0.0  
Snow Depth 0.00 in    
Sea Level Pressure  
Sea Level Pressure 29.78 in    
Wind  
Wind Speed 7 mph (NW)    
Max Wind Speed 21 mph    
Max Gust Speed 24 mph    
Visibility 10 miles    
Events      
T = Trace of Precipitation, MM = Missing Value Source: NWS Daily Summary

Daily Weather History Graph

Daily Weather History Graph

Search for Another Location

Airport or City:

Trip Planner

Search our weather history database for the weather conditions in past years. The results will help you decide how hot, cold, wet, or windy it might be!

Date:

Astronomy

May. 05, 2014 Rise Set
Actual Time 5:52 AM PDT 7:30 PM PDT
Civil Twilight 5:25 AM PDT 7:57 PM PDT
Nautical Twilight 4:53 AM PDT 8:30 PM PDT
Astronomical Twilight 4:19 AM PDT 9:04 PM PDT
Moon 11:14 AM PDT (5/5) 12:18 AM PDT (5/5)
Length of Visible Light 14h 32m
Length of Day
13h 38m
Waxing Crescent, 37% of the Moon is Illuminated
May 5
Waxing Crescent
May 6
First Quarter
May 14
Full
May 21
Last Quarter
May 28
New

Hourly Weather History & Observations

Time (PDT) Temp. Dew Point Humidity Pressure Visibility Wind Dir Wind Speed Gust Speed Precip Events Conditions
12:52 AM 80.1 °F 19.0 °F 10% 29.81 in 10.0 mi NW 17.3 mph 23.0 mph N/A   Clear
1:52 AM 78.1 °F 18.0 °F 10% 29.79 in 10.0 mi NW 8.1 mph - N/A   Clear
2:52 AM 75.9 °F 16.0 °F 10% 29.79 in 10.0 mi WNW 5.8 mph - N/A   Clear
3:52 AM 75.9 °F 14.0 °F 10% 29.79 in 10.0 mi NNW 6.9 mph - N/A   Clear
4:52 AM 71.1 °F 16.0 °F 12% 29.80 in 10.0 mi Calm Calm - N/A   Clear
5:52 AM 57.9 °F 24.1 °F 27% 29.80 in 10.0 mi West 3.5 mph - N/A   Clear
6:52 AM 62.1 °F 32.0 °F 32% 29.82 in 10.0 mi SE 3.5 mph - N/A   Clear
7:52 AM 75.9 °F 39.9 °F 27% 29.83 in 10.0 mi SSE 6.9 mph - N/A   Clear
8:52 AM 81.0 °F 34.0 °F 18% 29.84 in 10.0 mi ESE 3.5 mph - N/A   Clear
9:52 AM 84.9 °F 21.9 °F 10% 29.85 in 10.0 mi Calm Calm - N/A   Clear
11:52 AM 91.0 °F 25.0 °F 9% 29.83 in 10.0 mi Variable 6.9 mph - N/A   Clear
12:52 PM 93.9 °F 14.0 °F 5% 29.81 in 10.0 mi Variable 3.5 mph - N/A   Clear
1:52 PM 95.0 °F 12.9 °F 5% 29.78 in 10.0 mi North - - N/A   Clear
2:52 PM 96.1 °F 17.1 °F 6% 29.72 in 10.0 mi North - - N/A   Clear
3:52 PM 95.0 °F 23.0 °F 8% 29.71 in 10.0 mi NW 15.0 mph 24.2 mph N/A   Clear
4:52 PM 91.0 °F 23.0 °F 8% 29.70 in 10.0 mi West 12.7 mph - N/A   Clear
5:52 PM 91.0 °F 12.9 °F 6% 29.70 in 10.0 mi WNW 12.7 mph - N/A   Clear
6:52 PM 87.1 °F 21.0 °F 9% 29.70 in 9.0 mi West 16.1 mph 31.1 mph N/A   Clear
7:52 PM 82.9 °F 28.0 °F 14% 29.71 in 10.0 mi NNW 18.4 mph 31.1 mph N/A   Clear
9:52 PM 73.9 °F 39.0 °F 28% 29.75 in 10.0 mi NNW 13.8 mph 21.9 mph N/A   Clear
11:52 PM 69.1 °F 46.0 °F 44% 29.75 in 10.0 mi NNW 21.9 mph - N/A   Clear